| time (UTC) | temp C | wind direction | speed KPH | gust KPH | rain 1hr cm | rain 24hr cm | rain mn cm | humidity % | barometer mb |
| 20260506212007 | 21 | 244 | 4.8 | 11.3 | 0.00 | 0.00 | 0.00 | 68 | 1007.4 |
| 20260506211519 | 21 | 340 | 3.2 | 12.9 | 0.00 | 0.00 | 0.00 | 68 | 1007.3 |
| 20260506211006 | 21 | 296 | 3.2 | 12.9 | 0.00 | 0.00 | 0.00 | 68 | 1007.3 |
| 20260506210507 | 21 | 290 | 3.2 | 11.3 | 0.00 | 0.00 | 0.00 | 68 | 1007.3 |
| 20260506210022 | 21 | 42 | 4.8 | 12.9 | 0.00 | 0.00 | 0.00 | 68 | 1007.2 |
| 20260506205504 | 21 | 267 | 4.8 | 12.9 | 0.00 | 0.00 | 0.00 | 68 | 1007.2 |
| 20260506205007 | 21 | 240 | 1.6 | 16.1 | 0.00 | 0.00 | 0.00 | 68 | 1007.1 |
| 20260506204516 | 20 | 351 | 4.8 | 16.1 | 0.00 | 0.00 | 0.00 | 69 | 1007.1 |
| 20260506204006 | 21 | 148 | 3.2 | 11.3 | 0.00 | 0.00 | 0.00 | 69 | 1007.0 |
| 20260506203506 | 21 | 254 | 3.2 | 9.7 | 0.00 | 0.00 | 0.00 | 69 | 1007.0 |
| 20260506203025 | 21 | 209 | 3.2 | 8.0 | 0.00 | 0.00 | 0.00 | 69 | 1007.1 |
| 20260506202504 | 21 | 350 | 1.6 | 12.9 | 0.00 | 0.00 | 0.00 | 69 | 1006.9 |
| 20260506202008 | 20 | 214 | 3.2 | 12.9 | 0.00 | 0.00 | 0.00 | 68 | 1007.1 |
| 20260506201530 | 21 | 227 | 3.2 | 12.9 | 0.00 | 0.00 | 0.00 | 69 | 1007.0 |
| 20260506201006 | 20 | 315 | 1.6 | 4.8 | 0.00 | 0.00 | 0.00 | 70 | 1007.1 |
| 20260506200509 | 20 | 252 | 1.6 | 6.4 | 0.00 | 0.00 | 0.00 | 71 | 1007.3 |
| 20260506200017 | 20 | 238 | 3.2 | 6.4 | 0.00 | 0.00 | 0.00 | 71 | 1007.3 |
| 20260506195506 | 20 | 292 | 1.6 | 8.0 | 0.00 | 0.00 | 0.00 | 72 | 1007.4 |
| 20260506195008 | 20 | 334 | 3.2 | 9.7 | 0.00 | 0.00 | 0.00 | 72 | 1007.5 |
| 20260506194516 | 20 | 315 | 3.2 | 9.7 | 0.00 | 0.00 | 0.00 | 72 | 1007.7 |
| 20260506194008 | 20 | 329 | 1.6 | 14.5 | 0.00 | 0.00 | 0.00 | 72 | 1007.6 |
| 20260506193505 | 20 | 322 | 4.8 | 14.5 | 0.00 | 0.00 | 0.00 | 72 | 1007.8 |
| 20260506193019 | 20 | 192 | 3.2 | 14.5 | 0.00 | 0.00 | 0.00 | 72 | 1007.7 |
| 20260506192504 | 20 | 219 | 6.4 | 14.5 | 0.00 | 0.00 | 0.00 | 72 | 1007.8 |
| 20260506192006 | 19 | 268 | 3.2 | 16.1 | 0.00 | 0.00 | 0.00 | 72 | 1007.8 |
| 20260506191522 | 19 | 224 | 8.0 | 22.5 | 0.00 | 0.00 | 0.00 | 72 | 1007.9 |
| 20260506191011 | 19 | 124 | 3.2 | 22.5 | 0.00 | 0.00 | 0.00 | 73 | 1008.0 |
| 20260506190507 | 19 | 133 | 3.2 | 12.9 | 0.00 | 0.00 | 0.00 | 73 | 1007.9 |
| 20260506190020 | 19 | 248 | 3.2 | 16.1 | 0.00 | 0.00 | 0.00 | 73 | 1008.0 |
| 20260506185507 | 19 | 259 | 4.8 | 16.1 | 0.00 | 0.00 | 0.00 | 72 | 1007.9 |
| 20260506185009 | 19 | 228 | 6.4 | 16.1 | 0.00 | 0.00 | 0.00 | 72 | 1008.0 |
| 20260506184521 | 19 | 213 | 1.6 | 16.1 | 0.00 | 0.00 | 0.00 | 72 | 1008.1 |
| 20260506184009 | 19 | 252 | 4.8 | 16.1 | 0.00 | 0.00 | 0.00 | 72 | 1008.2 |
| 20260506183505 | 19 | 223 | 4.8 | 17.7 | 0.00 | 0.00 | 0.00 | 72 | 1008.2 |
| 20260506183027 | 19 | 202 | 4.8 | 17.7 | 0.00 | 0.00 | 0.00 | 72 | 1008.1 |
| 20260506182505 | 19 | 253 | 3.2 | 16.1 | 0.00 | 0.00 | 0.00 | 72 | 1008.2 |
| 20260506182011 | 19 | 238 | 3.2 | 17.7 | 0.00 | 0.00 | 0.00 | 71 | 1008.3 |
| 20260506181522 | 19 | 219 | 6.4 | 17.7 | 0.00 | 0.00 | 0.00 | 71 | 1008.3 |
| 20260506181007 | 19 | 308 | 4.8 | 17.7 | 0.00 | 0.00 | 0.00 | 70 | 1008.2 |
| 20260506180507 | 19 | 65 | 6.4 | 17.7 | 0.00 | 0.00 | 0.00 | 70 | 1008.4 |
| 20260506180021 | 19 | 206 | 4.8 | 22.5 | 0.00 | 0.00 | 0.00 | 70 | 1008.4 |
| 20260506175505 | 19 | 219 | 11.3 | 22.5 | 0.00 | 0.00 | 0.00 | 68 | 1008.6 |
| 20260506175006 | 20 | 102 | 4.8 | 14.5 | 0.00 | 0.00 | 0.00 | 68 | 1008.7 |
| 20260506174521 | 20 | 244 | 6.4 | 25.7 | 0.00 | 0.00 | 0.00 | 67 | 1008.6 |
| 20260506174008 | 20 | 247 | 6.4 | 35.4 | 0.00 | 0.00 | 0.00 | 65 | 1008.6 |
| 20260506173506 | 20 | 283 | 8.0 | 35.4 | 0.00 | 0.00 | 0.00 | 64 | 1008.6 |
| 20260506173023 | 20 | 256 | 4.8 | 29.0 | 0.00 | 0.00 | 0.00 | 65 | 1008.7 |
| 20260506172508 | 20 | 327 | 4.8 | 29.0 | 0.00 | 0.00 | 0.00 | 64 | 1008.7 |
| 20260506172006 | 20 | 221 | 4.8 | 11.3 | 0.00 | 0.00 | 0.00 | 65 | 1008.8 |
| 20260506171526 | 21 | 180 | 1.6 | 29.0 | 0.00 | 0.00 | 0.00 | 65 | 1008.6 |
| 20260506171008 | 21 | 323 | 6.4 | 29.0 | 0.00 | 0.00 | 0.00 | 64 | 1008.7 |
| 20260506170507 | 21 | 238 | 6.4 | 24.1 | 0.00 | 0.00 | 0.00 | 65 | 1008.7 |
| 20260506170024 | 21 | 306 | 4.8 | 14.5 | 0.00 | 0.00 | 0.00 | 65 | 1008.8 |
| 20260506165510 | 21 | 125 | 3.2 | 17.7 | 0.00 | 0.00 | 0.00 | 67 | 1008.9 |
| 20260506165005 | 21 | 294 | 6.4 | 14.5 | 0.00 | 0.00 | 0.00 | 68 | 1008.9 |
| 20260506164524 | 21 | 122 | 3.2 | 14.5 | 0.00 | 0.00 | 0.00 | 68 | 1009.2 |
| 20260506164009 | 21 | 189 | 4.8 | 16.1 | 0.00 | 0.00 | 0.00 | 62 | 1009.1 |
| 20260506163507 | 21 | 138 | 3.2 | 16.1 | 0.00 | 0.00 | 0.00 | 61 | 1009.0 |
| 20260506163022 | 21 | 214 | 4.8 | 16.1 | 0.00 | 0.00 | 0.00 | 61 | 1009.2 |
| 20260506162508 | 21 | 197 | 0.0 | 11.3 | 0.00 | 0.00 | 0.00 | 61 | 1009.5 |
| 20260506162008 | 21 | 216 | 1.6 | 11.3 | 0.00 | 0.00 | 0.00 | 60 | 1009.8 |
| 20260506161524 | 21 | 288 | 1.6 | 19.3 | 0.00 | 0.00 | 0.00 | 61 | 1009.9 |
| 20260506161007 | 21 | 298 | 6.4 | 19.3 | 0.00 | 0.00 | 0.00 | 60 | 1009.9 |
| 20260506160506 | 21 | 19 | 4.8 | 14.5 | 0.00 | 0.00 | 0.00 | 60 | 1009.8 |
| 20260506160025 | 21 | 74 | 3.2 | 14.5 | 0.00 | 0.00 | 0.00 | 61 | 1009.7 |
| 20260506155502 | 21 | 281 | 3.2 | 20.9 | 0.00 | 0.00 | 0.00 | 61 | 1009.8 |
| 20260506155003 | 21 | 180 | 4.8 | 20.9 | 0.00 | 0.00 | 0.00 | 60 | 1009.7 |
| 20260506154507 | 21 | 351 | 4.8 | 19.3 | 0.00 | 0.00 | 0.00 | 59 | 1009.7 |
| 20260506154004 | 21 | 213 | 3.2 | 19.3 | 0.00 | 0.00 | 0.00 | 60 | 1009.6 |
| 20260506153501 | 21 | 135 | 3.2 | 12.9 | 0.00 | 0.00 | 0.00 | 60 | 1009.7 |
| 20260506153011 | 21 | 351 | 3.2 | 17.7 | 0.00 | 0.00 | 0.00 | 59 | 1009.8 |
| 20260506152504 | 21 | 113 | 6.4 | 17.7 | 0.00 | 0.00 | 0.00 | 59 | 1009.7 |
| 20260506152006 | 21 | 273 | 3.2 | 14.5 | 0.00 | 0.00 | 0.00 | 59 | 1009.9 |
| 20260506151519 | 21 | 215 | 6.4 | 16.1 | 0.00 | 0.00 | 0.00 | 57 | 1009.7 |
| 20260506151008 | 21 | 123 | 4.8 | 16.1 | 0.00 | 0.00 | 0.00 | 59 | 1009.8 |
| 20260506150507 | 21 | 34 | 3.2 | 16.1 | 0.00 | 0.00 | 0.00 | 58 | 1009.8 |
| 20260506150022 | 21 | 336 | 4.8 | 16.1 | 0.00 | 0.00 | 0.00 | 58 | 1009.9 |
| 20260506145506 | 21 | 301 | 3.2 | 14.5 | 0.00 | 0.00 | 0.00 | 59 | 1009.8 |
| 20260506145011 | 20 | 242 | 1.6 | 14.5 | 0.00 | 0.00 | 0.00 | 59 | 1009.8 |
| 20260506144506 | 20 | 24 | 4.8 | 11.3 | 0.00 | 0.00 | 0.00 | 59 | 1009.9 |
| 20260506144002 | 21 | 227 | 3.2 | 9.7 | 0.00 | 0.00 | 0.00 | 59 | 1009.9 |
| 20260506143506 | 21 | 200 | 4.8 | 17.7 | 0.00 | 0.00 | 0.00 | 59 | 1009.9 |
| 20260506143022 | 21 | 249 | 4.8 | 17.7 | 0.00 | 0.00 | 0.00 | 58 | 1010.0 |
| 20260506142503 | 21 | 152 | 3.2 | 14.5 | 0.00 | 0.00 | 0.00 | 58 | 1009.9 |
| 20260506142005 | 21 | 210 | 3.2 | 12.9 | 0.00 | 0.00 | 0.00 | 58 | 1009.9 |
| 20260506141513 | 21 | 258 | 6.4 | 14.5 | 0.00 | 0.00 | 0.00 | 58 | 1010.0 |
| 20260506141009 | 21 | 112 | 6.4 | 14.5 | 0.00 | 0.00 | 0.00 | 58 | 1009.8 |
| 20260506140506 | 21 | 229 | 3.2 | 16.1 | 0.00 | 0.00 | 0.00 | 58 | 1009.7 |
| 20260506140018 | 21 | 165 | 3.2 | 16.1 | 0.00 | 0.00 | 0.00 | 59 | 1009.7 |
| 20260506135511 | 21 | 151 | 4.8 | 14.5 | 0.00 | 0.00 | 0.00 | 59 | 1009.7 |
| 20260506135008 | 21 | 290 | 8.0 | 19.3 | 0.00 | 0.00 | 0.00 | 58 | 1009.8 |
| 20260506134526 | 21 | 221 | 4.8 | 19.3 | 0.00 | 0.00 | 0.00 | 58 | 1009.8 |
| 20260506134008 | 21 | 119 | 3.2 | 27.4 | 0.00 | 0.00 | 0.00 | 58 | 1009.7 |
| 20260506133503 | 21 | 305 | 8.0 | 27.4 | 0.00 | 0.00 | 0.00 | 58 | 1009.6 |
| 20260506133007 | 21 | 265 | 8.0 | 19.3 | 0.00 | 0.00 | 0.00 | 57 | 1009.8 |
| 20260506132502 | 21 | 181 | 3.2 | 17.7 | 0.00 | 0.00 | 0.00 | 58 | 1009.8 |
| 20260506132008 | 21 | 131 | 4.8 | 17.7 | 0.00 | 0.00 | 0.00 | 58 | 1010.0 |
| 20260506131512 | 22 | 244 | 6.4 | 17.7 | 0.00 | 0.00 | 0.00 | 56 | 1010.2 |
| 20260506131007 | 22 | 338 | 4.8 | 16.1 | 0.00 | 0.00 | 0.00 | 58 | 1010.1 |
| 20260506130506 | 21 | 46 | 6.4 | 25.7 | 0.00 | 0.00 | 0.00 | 57 | 1010.2 |
| 20260506130022 | 21 | 223 | 6.4 | 25.7 | 0.00 | 0.00 | 0.00 | 59 | 1010.2 |
| 20260506125506 | 21 | 236 | 4.8 | 14.5 | 0.00 | 0.00 | 0.00 | 58 | 1010.2 |
| 20260506125007 | 21 | 165 | 4.8 | 17.7 | 0.00 | 0.00 | 0.00 | 60 | 1010.2 |
| 20260506124524 | 20 | 251 | 6.4 | 20.9 | 0.00 | 0.00 | 0.00 | 61 | 1010.1 |
| 20260506124008 | 20 | 301 | 3.2 | 20.9 | 0.00 | 0.00 | 0.00 | 62 | 1010.2 |
| 20260506123508 | 20 | 274 | 6.4 | 35.4 | 0.00 | 0.00 | 0.00 | 61 | 1010.1 |
| 20260506123031 | 20 | 275 | 8.0 | 35.4 | 0.00 | 0.00 | 0.00 | 62 | 1010.2 |
| 20260506122508 | 20 | 239 | 3.2 | 12.9 | 0.00 | 0.00 | 0.00 | 63 | 1010.2 |
| 20260506122012 | 20 | 140 | 4.8 | 20.9 | 0.00 | 0.00 | 0.00 | 64 | 1010.2 |
| 20260506121529 | 19 | 234 | 3.2 | 20.9 | 0.00 | 0.00 | 0.00 | 66 | 1010.3 |
| 20260506121010 | 18 | 207 | 4.8 | 16.1 | 0.00 | 0.00 | 0.00 | 66 | 1010.2 |
| 20260506120511 | 19 | 168 | 3.2 | 14.5 | 0.00 | 0.00 | 0.00 | 66 | 1010.3 |
| 20260506120038 | 19 | 165 | 1.6 | 14.5 | 0.00 | 0.00 | 0.00 | 67 | 1010.3 |
| 20260506115504 | 18 | 217 | 1.6 | 14.5 | 0.00 | 0.00 | 0.00 | 68 | 1010.4 |
| 20260506115006 | 18 | 255 | 4.8 | 11.3 | 0.00 | 0.00 | 0.00 | 68 | 1010.3 |
| 20260506114521 | 18 | 241 | 4.8 | 14.5 | 0.00 | 0.00 | 0.00 | 69 | 1010.4 |
| 20260506114010 | 18 | 174 | 4.8 | 19.3 | 0.00 | 0.00 | 0.00 | 69 | 1010.3 |
| 20260506113509 | 18 | 288 | 6.4 | 19.3 | 0.00 | 0.00 | 0.00 | 69 | 1010.3 |
| 20260506113029 | 18 | 193 | 6.4 | 12.9 | 0.00 | 0.00 | 0.00 | 70 | 1010.3 |
| 20260506112512 | 17 | 273 | 1.6 | 9.7 | 0.00 | 0.00 | 0.00 | 71 | 1010.4 |
| 20260506112016 | 17 | 351 | 3.2 | 19.3 | 0.00 | 0.00 | 0.00 | 72 | 1010.6 |
| 20260506111527 | 17 | 226 | 3.2 | 20.9 | 0.00 | 0.00 | 0.00 | 72 | 1010.6 |
| 20260506111017 | 17 | 246 | 4.8 | 20.9 | 0.00 | 0.00 | 0.00 | 72 | 1010.4 |
| 20260506110510 | 17 | 230 | 3.2 | 9.7 | 0.00 | 0.00 | 0.00 | 72 | 1010.5 |
| 20260506110031 | 17 | 189 | 3.2 | 19.3 | 0.00 | 0.00 | 0.00 | 72 | 1010.4 |
| 20260506105511 | 17 | 228 | 4.8 | 19.3 | 0.00 | 0.00 | 0.00 | 72 | 1010.3 |
| 20260506105009 | 17 | 171 | 1.6 | 16.1 | 0.00 | 0.00 | 0.00 | 73 | 1010.3 |
| 20260506104520 | 17 | 104 | 4.8 | 14.5 | 0.00 | 0.00 | 0.00 | 73 | 1010.4 |
| 20260506104006 | 17 | 281 | 4.8 | 14.5 | 0.00 | 0.00 | 0.00 | 74 | 1010.3 |
| 20260506103507 | 17 | 281 | 3.2 | 9.7 | 0.00 | 0.00 | 0.00 | 74 | 1010.4 |
| 20260506103026 | 16 | 181 | 3.2 | 9.7 | 0.00 | 0.00 | 0.00 | 75 | 1010.5 |
| 20260506102507 | 16 | 225 | 1.6 | 12.9 | 0.00 | 0.00 | 0.00 | 75 | 1010.4 |
| 20260506102009 | 16 | 219 | 1.6 | 12.9 | 0.00 | 0.00 | 0.00 | 75 | 1010.4 |
| 20260506101528 | 16 | 88 | 3.2 | 8.0 | 0.00 | 0.00 | 0.00 | 75 | 1010.3 |
| 20260506101009 | 16 | 150 | 1.6 | 12.9 | 0.00 | 0.00 | 0.00 | 75 | 1010.2 |
| 20260506100509 | 17 | 119 | 3.2 | 12.9 | 0.00 | 0.00 | 0.00 | 75 | 1010.1 |
| 20260506100029 | 17 | 174 | 3.2 | 11.3 | 0.00 | 0.00 | 0.00 | 75 | 1010.1 |
| 20260506095505 | 16 | 235 | 1.6 | 8.0 | 0.00 | 0.00 | 0.00 | 75 | 1010.1 |
| 20260506095004 | 17 | 219 | 1.6 | 8.0 | 0.00 | 0.00 | 0.00 | 75 | 1010.1 |
| 20260506094520 | 17 | 149 | 3.2 | 16.1 | 0.00 | 0.00 | 0.00 | 75 | 1010.0 |
| 20260506094006 | 17 | 225 | 6.4 | 16.1 | 0.00 | 0.00 | 0.00 | 76 | 1010.0 |
| 20260506093507 | 16 | 124 | 1.6 | 16.1 | 0.00 | 0.00 | 0.00 | 76 | 1009.9 |
| 20260506093026 | 17 | 186 | 1.6 | 16.1 | 0.00 | 0.00 | 0.00 | 75 | 1010.1 |
| 20260506092506 | 17 | 156 | 1.6 | 14.5 | 0.00 | 0.00 | 0.00 | 75 | 1010.0 |
| 20260506092013 | 17 | 305 | 3.2 | 14.5 | 0.00 | 0.00 | 0.00 | 75 | 1010.2 |
| 20260506091524 | 17 | 294 | 1.6 | 14.5 | 0.00 | 0.00 | 0.00 | 75 | 1010.2 |
| 20260506091009 | 17 | 207 | 4.8 | 14.5 | 0.00 | 0.00 | 0.00 | 75 | 1010.2 |
| 20260506090510 | 17 | 219 | 3.2 | 12.9 | 0.00 | 0.00 | 0.00 | 75 | 1010.3 |
| 20260506090042 | 17 | 137 | 3.2 | 12.9 | 0.00 | 0.00 | 0.00 | 75 | 1010.3 |
| 20260506085504 | 17 | 186 | 3.2 | 17.7 | 0.00 | 0.00 | 0.00 | 76 | 1010.4 |
| 20260506085002 | 17 | 159 | 3.2 | 17.7 | 0.00 | 0.00 | 0.00 | 75 | 1010.3 |
| 20260506084517 | 17 | 149 | 1.6 | 14.5 | 0.00 | 0.00 | 0.00 | 75 | 1010.3 |
| 20260506084007 | 17 | 220 | 6.4 | 14.5 | 0.00 | 0.00 | 0.00 | 75 | 1010.4 |
| 20260506083508 | 17 | 10 | 3.2 | 12.9 | 0.00 | 0.00 | 0.00 | 75 | 1010.4 |
| 20260506083022 | 17 | 232 | 1.6 | 12.9 | 0.00 | 0.00 | 0.00 | 75 | 1010.4 |
| 20260506082507 | 17 | 276 | 3.2 | 11.3 | 0.00 | 0.00 | 0.00 | 75 | 1010.4 |
| 20260506082009 | 17 | 159 | 3.2 | 11.3 | 0.00 | 0.00 | 0.00 | 75 | 1010.4 |
| 20260506081523 | 17 | 199 | 3.2 | 11.3 | 0.00 | 0.00 | 0.00 | 75 | 1010.5 |
| 20260506081008 | 17 | 30 | 3.2 | 11.3 | 0.00 | 0.00 | 0.00 | 75 | 1010.4 |
| 20260506080509 | 17 | 232 | 3.2 | 14.5 | 0.00 | 0.00 | 0.00 | 76 | 1010.3 |
| 20260506073506 | 17 | 138 | 4.8 | 12.9 | 0.00 | 0.00 | 0.00 | 75 | 1010.4 |
| 20260506073021 | 17 | 126 | 1.6 | 12.9 | 0.00 | 0.00 | 0.00 | 75 | 1010.4 |
| 20260506072511 | 17 | 184 | 3.2 | 12.9 | 0.00 | 0.00 | 0.00 | 75 | 1010.5 |
| 20260506072006 | 17 | 186 | 3.2 | 9.7 | 0.00 | 0.00 | 0.00 | 74 | 1010.5 |
| 20260506071524 | 17 | 216 | 0.0 | 9.7 | 0.00 | 0.00 | 0.00 | 74 | 1010.6 |
| 20260506071007 | 17 | 200 | 3.2 | 12.9 | 0.00 | 0.00 | 0.00 | 74 | 1010.6 |
| 20260506070510 | 17 | 241 | 4.8 | 12.9 | 0.00 | 0.00 | 0.00 | 74 | 1010.6 |
| 20260506062508 | 18 | 219 | 3.2 | 14.5 | 0.00 | 0.00 | 0.00 | 72 | 1010.7 |
| 20260506062010 | 18 | 266 | 3.2 | 14.5 | 0.00 | 0.00 | 0.00 | 72 | 1010.7 |
| 20260506061503 | 18 | 153 | 3.2 | 14.5 | 0.00 | 0.00 | 0.00 | 72 | 1010.7 |
| 20260506061003 | 18 | 273 | 1.6 | 12.9 | 0.00 | 0.00 | 0.00 | 72 | 1010.7 |
| 20260506060504 | 18 | 161 | 3.2 | 16.1 | 0.00 | 0.00 | 0.00 | 72 | 1010.8 |
| 20260506051008 | 18 | 223 | 4.8 | 16.1 | 0.00 | 0.00 | 0.00 | 70 | 1011.2 |
| 20260506050502 | 18 | 89 | 3.2 | 16.1 | 0.00 | 0.00 | 0.00 | 70 | 1011.2 |
| 20260506045005 | 19 | 123 | 1.6 | 11.3 | 0.00 | 0.00 | 0.00 | 69 | 1011.2 |
| 20260506044508 | 18 | 281 | 3.2 | 11.3 | 0.00 | 0.00 | 0.00 | 69 | 1011.2 |
| 20260506044004 | 19 | 133 | 3.2 | 12.9 | 0.00 | 0.00 | 0.00 | 68 | 1011.2 |
| 20260506043505 | 19 | 243 | 3.2 | 12.9 | 0.00 | 0.00 | 0.00 | 68 | 1011.2 |
| 20260506043024 | 19 | 146 | 4.8 | 11.3 | 0.00 | 0.00 | 0.00 | 68 | 1011.2 |
| 20260506042505 | 19 | 115 | 1.6 | 19.3 | 0.00 | 0.00 | 0.00 | 68 | 1011.1 |
| 20260506042008 | 19 | 224 | 4.8 | 19.3 | 0.00 | 0.00 | 0.00 | 68 | 1011.1 |
| 20260506041524 | 19 | 132 | 3.2 | 11.3 | 0.00 | 0.00 | 0.00 | 68 | 1011.0 |
| 20260506041008 | 19 | 311 | 1.6 | 11.3 | 0.00 | 0.00 | 0.00 | 68 | 1011.1 |
| 20260506040509 | 19 | 256 | 1.6 | 19.3 | 0.00 | 0.00 | 0.00 | 67 | 1011.0 |
| 20260506040022 | 19 | 263 | 6.4 | 19.3 | 0.00 | 0.00 | 0.00 | 67 | 1011.1 |
| 20260506035502 | 19 | 236 | 1.6 | 16.1 | 0.00 | 0.00 | 0.00 | 67 | 1011.0 |
| 20260506035003 | 19 | 185 | 4.8 | 16.1 | 0.00 | 0.00 | 0.00 | 67 | 1011.1 |
| 20260506034528 | 18 | 11 | 1.6 | 9.7 | 0.00 | 0.00 | 0.00 | 67 | 1011.1 |
| 20260506034002 | 18 | 269 | 1.6 | 9.7 | 0.00 | 0.00 | 0.00 | 67 | 1011.1 |
| 20260506033503 | 18 | 190 | 1.6 | 14.5 | 0.00 | 0.00 | 0.00 | 67 | 1011.2 |
| 20260506033017 | 18 | 161 | 1.6 | 14.5 | 0.00 | 0.00 | 0.00 | 67 | 1011.2 |
| 20260506032504 | 18 | 236 | 4.8 | 14.5 | 0.00 | 0.00 | 0.00 | 68 | 1011.2 |
| 20260506032008 | 18 | 201 | 1.6 | 14.5 | 0.00 | 0.00 | 0.00 | 67 | 1011.2 |
| 20260506031516 | 18 | 229 | 1.6 | 14.5 | 0.00 | 0.00 | 0.00 | 67 | 1011.2 |
| 20260506031009 | 18 | 113 | 3.2 | 14.5 | 0.00 | 0.00 | 0.00 | 67 | 1011.2 |
| 20260506030505 | 18 | 129 | 3.2 | 9.7 | 0.00 | 0.00 | 0.00 | 67 | 1011.3 |
| 20260506030022 | 18 | 234 | 1.6 | 8.0 | 0.00 | 0.00 | 0.00 | 67 | 1011.2 |
| 20260506025508 | 18 | 206 | 0.0 | 8.0 | 0.00 | 0.00 | 0.00 | 67 | 1011.2 |
| 20260506025007 | 18 | 163 | 1.6 | 4.8 | 0.00 | 0.00 | 0.00 | 66 | 1011.3 |
| 20260506024514 | 18 | 157 | 1.6 | 9.7 | 0.00 | 0.00 | 0.00 | 66 | 1011.3 |
| 20260506024005 | 18 | 103 | 1.6 | 9.7 | 0.00 | 0.00 | 0.00 | 65 | 1011.3 |
| 20260506023504 | 18 | 9 | 3.2 | 9.7 | 0.00 | 0.00 | 0.00 | 1011.3 | |
| 20260506023009 | 18 | 223 | 1.6 | 8.0 | 0.00 | 0.00 | 0.00 | 64 | 1011.3 |
| 20260506022503 | 19 | 147 | 1.6 | 9.7 | 0.00 | 0.00 | 0.00 | 64 | 1011.3 |
| 20260506022004 | 19 | 192 | 3.2 | 9.7 | 0.00 | 0.00 | 0.00 | 64 | 1011.3 |
| 20260506021514 | 19 | 159 | 1.6 | 6.4 | 0.00 | 0.00 | 0.00 | 63 | 1011.3 |
| 20260506021005 | 19 | 217 | 1.6 | 6.4 | 0.00 | 0.00 | 0.00 | 63 | 1011.3 |
| 20260506020504 | 19 | 224 | 1.6 | 11.3 | 0.00 | 0.00 | 0.00 | 62 | 1011.3 |
| 20260506020020 | 19 | 211 | 3.2 | 11.3 | 0.00 | 0.00 | 0.00 | 62 | 1011.4 |
| 20260506015508 | 19 | 57 | 3.2 | 9.7 | 0.00 | 0.00 | 0.00 | 61 | 1011.3 |
| 20260506015009 | 19 | 207 | 1.6 | 17.7 | 0.00 | 0.00 | 0.00 | 61 | 1011.3 |
| 20260506014525 | 20 | 230 | 4.8 | 17.7 | 0.00 | 0.00 | 0.00 | 60 | 1011.3 |
| 20260506014008 | 20 | 186 | 0.0 | 8.0 | 0.00 | 0.00 | 0.00 | 60 | 1011.3 |
| 20260506013502 | 20 | 221 | 3.2 | 9.7 | 0.00 | 0.00 | 0.00 | 59 | 1011.2 |
| 20260506013008 | 20 | 30 | 1.6 | 12.9 | 0.00 | 0.00 | 0.00 | 58 | 1011.2 |
| 20260506012503 | 20 | 211 | 3.2 | 12.9 | 0.00 | 0.00 | 0.00 | 58 | 1011.2 |
| 20260506012004 | 20 | 175 | 4.8 | 12.9 | 0.00 | 0.00 | 0.00 | 58 | 1011.2 |
| 20260506011513 | 20 | 228 | 3.2 | 12.9 | 0.00 | 0.00 | 0.00 | 57 | 1011.2 |
| 20260506011010 | 20 | 152 | 3.2 | 9.7 | 0.00 | 0.00 | 0.00 | 57 | 1011.1 |
| 20260506010506 | 20 | 134 | 1.6 | 12.9 | 0.00 | 0.00 | 0.00 | 57 | 1011.0 |
| 20260506010019 | 20 | 317 | 0.0 | 12.9 | 0.00 | 0.00 | 0.00 | 56 | 1011.0 |
| 20260506005507 | 20 | 323 | 1.6 | 11.3 | 0.00 | 0.00 | 0.00 | 56 | 1010.9 |
| 20260506005007 | 21 | 218 | 1.6 | 11.3 | 0.00 | 0.00 | 0.00 | 55 | 1010.9 |
| 20260506004522 | 21 | 232 | 1.6 | 11.3 | 0.00 | 0.00 | 0.00 | 55 | 1010.8 |
| 20260506004006 | 21 | 157 | 1.6 | 11.3 | 0.00 | 0.00 | 0.00 | 55 | 1010.7 |
| 20260506003511 | 21 | 98 | 3.2 | 11.3 | 0.00 | 0.00 | 0.00 | 55 | 1010.7 |
| 20260506003026 | 21 | 333 | 1.6 | 16.1 | 0.00 | 0.00 | 0.00 | 55 | 1010.7 |
| 20260506002502 | 21 | 128 | 4.8 | 16.1 | 0.00 | 0.00 | 0.00 | 54 | 1010.6 |
| 20260506002003 | 21 | 248 | 4.8 | 16.1 | 0.00 | 0.00 | 0.00 | 54 | 1010.6 |
| 20260506001511 | 21 | 257 | 1.6 | 12.9 | 0.00 | 0.00 | 0.00 | 54 | 1010.7 |
| 20260506001003 | 22 | 164 | 3.2 | 12.9 | 0.00 | 0.00 | 0.00 | 53 | 1010.5 |
| 20260506000506 | 22 | 308 | 1.6 | 11.3 | 0.00 | 0.00 | 0.00 | 52 | 1010.6 |
| 20260506000015 | 22 | 215 | 1.6 | 14.5 | 0.00 | 0.00 | 0.00 | 52 | 1010.5 |
| 20260505235506 | 22 | 109 | 3.2 | 17.7 | 0.00 | 0.00 | 0.00 | 51 | 1010.4 |
| 20260505235006 | 22 | 180 | 6.4 | 17.7 | 0.00 | 0.00 | 0.00 | 51 | 1010.4 |
| 20260505234521 | 22 | 232 | 1.6 | 11.3 | 0.00 | 0.00 | 0.00 | 50 | 1010.3 |
| 20260505234006 | 23 | 157 | 3.2 | 14.5 | 0.00 | 0.00 | 0.00 | 49 | 1010.3 |
| 20260505233509 | 23 | 142 | 4.8 | 14.5 | 0.00 | 0.00 | 0.00 | 48 | 1010.1 |
| 20260505233025 | 23 | 65 | 3.2 | 11.3 | 0.00 | 0.00 | 0.00 | 47 | 1010.0 |
| 20260505232507 | 23 | 149 | 4.8 | 17.7 | 0.00 | 0.00 | 0.00 | 47 | 1010.0 |
| 20260505232011 | 23 | 14 | 1.6 | 17.7 | 0.00 | 0.00 | 0.00 | 46 | 1010.0 |
| 20260505231508 | 23 | 232 | 3.2 | 12.9 | 0.00 | 0.00 | 0.00 | 45 | 1009.9 |
| 20260505231003 | 23 | 239 | 3.2 | 12.9 | 0.00 | 0.00 | 0.00 | 44 | 1009.8 |
| 20260505230504 | 24 | 214 | 4.8 | 16.1 | 0.00 | 0.00 | 0.00 | 44 | 1009.7 |
| 20260505230013 | 24 | 281 | 1.6 | 16.1 | 0.00 | 0.00 | 0.00 | 43 | 1009.8 |
| 20260505225504 | 24 | 259 | 4.8 | 16.1 | 0.00 | 0.00 | 0.00 | 42 | 1009.8 |
| 20260505225007 | 25 | 28 | 3.2 | 14.5 | 0.00 | 0.00 | 0.00 | 41 | 1009.8 |
| 20260505224520 | 25 | 285 | 3.2 | 12.9 | 0.00 | 0.00 | 0.00 | 41 | 1009.7 |
| 20260505224008 | 25 | 311 | 4.8 | 16.1 | 0.00 | 0.00 | 0.00 | 40 | 1009.7 |
| 20260505223510 | 25 | 182 | 4.8 | 16.1 | 0.00 | 0.00 | 0.00 | 39 | 1009.6 |
| 20260505223030 | 26 | 344 | 3.2 | 19.3 | 0.00 | 0.00 | 0.00 | 39 | 1009.5 |
| 20260505222509 | 26 | 202 | 4.8 | 22.5 | 0.00 | 0.00 | 0.00 | 39 | 1009.4 |
| 20260505222013 | 26 | 215 | 4.8 | 22.5 | 0.00 | 0.00 | 0.00 | 37 | 1009.3 |
| 20260505221528 | 26 | 39 | 4.8 | 20.9 | 0.00 | 0.00 | 0.00 | 37 | 1009.4 |
| 20260505221010 | 26 | 194 | 8.0 | 20.9 | 0.00 | 0.00 | 0.00 | 37 | 1009.4 |
| 20260505220502 | 26 | 245 | 3.2 | 19.3 | 0.00 | 0.00 | 0.00 | 37 | 1009.4 |
| 20260505220013 | 26 | 172 | 8.0 | 19.3 | 0.00 | 0.00 | 0.00 | 36 | 1009.4 |
| 20260505215503 | 26 | 42 | 4.8 | 17.7 | 0.00 | 0.00 | 0.00 | 36 | 1009.4 |
| 20260505215006 | 26 | 134 | 4.8 | 24.1 | 0.00 | 0.00 | 0.00 | 36 | 1009.2 |
| 20260505214524 | 26 | 321 | 4.8 | 24.1 | 0.00 | 0.00 | 0.00 | 35 | 1009.2 |
| 20260505214008 | 27 | 34 | 9.7 | 24.1 | 0.00 | 0.00 | 0.00 | 35 | 1009.4 |
| 20260505213507 | 27 | 304 | 3.2 | 16.1 | 0.00 | 0.00 | 0.00 | 35 | 1009.0 |
| 20260505213022 | 27 | 63 | 4.8 | 20.9 | 0.00 | 0.00 | 0.00 | 34 | 1009.1 |
| 20260505212506 | 27 | 288 | 4.8 | 20.9 | 0.00 | 0.00 | 0.00 | 35 | 1009.1 |